{"data":{"norad_id":67461,"epoch":"2026-09-19T04:16:08.126976Z","epoch_age_seconds":186405,"freshness":"STALE","line1":"1 67461U 26008S   26262.17787184  .00010540  00000+0  39189-3 0  9993","line2":"2 67461  43.0008 192.5148 0001009 261.2622  98.8115 15.27589349 39166","mean_motion":15.27589349,"eccentricity":0.0001009,"inclination_deg":43.0008,"raan_deg":192.5148,"arg_perigee_deg":261.2622,"mean_anomaly_deg":98.8115,"bstar":0.00039189,"rev_number":3916,"period_min":94.266171791697,"perigee_km":482.32881106066,"apogee_km":483.71339276563,"semimajor_km":6861.1581019131,"source":"CELESTRAK","updated_at":"2026-09-20T09:00:43.551020Z"}}